Location: Caltech
(34.1382°N, 118.1253°W)
Time: 16:25:26
(UTC-08:00)

Iridium 68 - Visible Passes

Search period start: 29 January 2015 00:00
Search period end: 08 February 2015 00:00
Orbit: 776 x 779 km, 86.4° (Epoch: 29 January)

Date Brightness Start Highest point End Pass type
(mag) Time Alt. Az. Time Alt. Az. Time Alt. Az.
29 Jan 7.0 06:10:01 10° SSE 06:15:02 52° E 06:20:06 10° NNE visible
29 Jan 6.5 18:24:18 10° N 18:29:28 65° W 18:34:36 10° S visible
30 Jan 8.3 05:37:24 10° SE 05:41:38 27° E 05:46:01 10° NNE visible
30 Jan 6.0 17:50:47 10° N 17:55:58 65° E 18:01:07 10° S visible
30 Jan 9.2 19:34:27 10° WNW 19:36:11 11° W 19:37:33 10° W visible
31 Jan 9.1 05:05:54 10° ESE 05:08:19 14° E 05:11:03 10° NE visible
31 Jan 8.5 18:58:49 10° NNW 19:02:53 22° W 19:06:46 10° SW visible
01 Feb 6.2 06:09:54 10° S 06:15:05 79° E 06:20:19 10° N visible
01 Feb 7.3 18:24:34 10° NNW 18:29:30 43° W 18:34:23 10° SSW visible
02 Feb 7.5 05:36:52 10° SSE 05:41:38 40° E 05:46:31 10° NNE visible
02 Feb 6.1 17:50:49 10° N 17:56:04 85° W 18:01:16 10° S visible
03 Feb 8.6 05:04:34 10° SE 05:08:17 21° E 05:12:10 10° NE visible
03 Feb 9.0 18:59:49 10° NW 19:02:51 15° W 19:05:36 10° WSW visible
04 Feb 9.3 04:34:30 10° E 04:34:59 10° E 04:35:53 10° ENE visible
04 Feb 6.0 06:10:00 10° S 06:15:10 70° W 06:20:23 10° N visible
04 Feb 8.2 18:25:01 10° NNW 18:29:31 29° W 18:33:54 10° SW visible
05 Feb 6.6 05:36:34 10° SSE 05:41:41 60° E 05:46:49 10° N visible
05 Feb 6.9 17:51:00 10° N 17:56:06 56° W 18:01:11 10° SSW visible
06 Feb 7.9 05:03:48 10° SE 05:08:16 31° E 05:12:50 10° NNE visible
07 Feb 8.9 04:31:58 10° ESE 04:34:55 16° E 04:38:08 10° NE visible
07 Feb 6.3 06:10:19 10° SSW 06:15:18 46° W 06:20:19 10° NNW visible
07 Feb 8.9 18:25:44 10° NW 18:29:29 20° W 18:33:03 10° SW visible
